When you browse on this site, cookies collect data to enhance your experience and personalize the content and advertising you see.
Visit our Privacy Policy to learn more. By continuing to use the site, you agree to this use of cookies and data.
  • In Lithuania
  • List of Countries
  • For 7 days
  • Water Temperature
  • Satellite Maps
  • Weather Map
  • Weather Widgets
  • user-avatar
    Login

    Hourly Weather Beverly

    Today, 22 July, Monday

    Time Temperature Precipitation Wind Pressure Humidity
    00:00 +17°C° 0.7 mm 7 mps 761 mmHg 87%
    01:00 +18°C° 0 mm 7 mps 761 mmHg 86%
    02:00 +18°C° 0 mm 7 mps 761 mmHg 86%
    03:00 +19°C° 0 mm 6 mps 761 mmHg 85%
    04:00 +19°C° 0 mm 6 mps 761 mmHg 85%
    05:00 +19°C° 0 mm 6 mps 761 mmHg 84%
    06:00 +20°C° 0 mm 6 mps 761 mmHg 84%
    07:00 +21°C° 0 mm 7 mps 761 mmHg 78%
    08:00 +22°C° 0 mm 7 mps 762 mmHg 73%
    09:00 +24°C° 0 mm 8 mps 762 mmHg 67%
    10:00 +26°C° 0 mm 8 mps 762 mmHg 63%
    11:00 +27°C° 0 mm 8 mps 762 mmHg 59%
    12:00 +28°C° 0 mm 8 mps 762 mmHg 55%
    13:00 +28°C° 0 mm 7 mps 762 mmHg 54%
    14:00 +29°C° 0 mm 7 mps 762 mmHg 53%
    15:00 +29°C° 0 mm 6 mps 762 mmHg 52%
    16:00 +28°C° 0 mm 6 mps 762 mmHg 56%
    17:00 +28°C° 0 mm 5 mps 762 mmHg 60%
    18:00 +27°C° 0 mm 5 mps 762 mmHg 63%
    19:00 +25°C° 0 mm 4 mps 763 mmHg 69%
    20:00 +23°C° 0 mm 4 mps 763 mmHg 74%
    21:00 +21°C° 0 mm 3 mps 764 mmHg 80%
    22:00 +20°C° 0 mm 3 mps 764 mmHg 82%
    23:00 +20°C° 0 mm 3 mps 764 mmHg 84%

    Tomorrow, 23 July, Tuesday

    Time Temperature Precipitation Wind Pressure Humidity
    00:00 +19°C° 0 mm 3 mps 764 mmHg 87%
    01:00 +18°C° 0 mm 3 mps 764 mmHg 87%
    02:00 +18°C° 0 mm 2 mps 764 mmHg 88%
    03:00 +18°C° 0 mm 2 mps 764 mmHg 88%
    04:00 +18°C° 0 mm 2 mps 764 mmHg 85%
    05:00 +19°C° 0 mm 2 mps 764 mmHg 82%
    06:00 +19°C° 0 mm 2 mps 764 mmHg 80%
    07:00 +21°C° 0 mm 3 mps 764 mmHg 74%
    08:00 +24°C° 0 mm 3 mps 764 mmHg 68%
    09:00 +26°C° 0 mm 3 mps 763 mmHg 62%
    10:00 +27°C° 0 mm 4 mps 763 mmHg 62%
    11:00 +28°C° 0 mm 4 mps 763 mmHg 62%
    12:00 +29°C° 0 mm 4 mps 763 mmHg 61%
    13:00 +29°C° 0 mm 5 mps 762 mmHg 60%
    14:00 +29°C° 0 mm 5 mps 762 mmHg 58%
    15:00 +30°C° 0 mm 5 mps 762 mmHg 57%
    16:00 +29°C° 0 mm 4 mps 761 mmHg 59%
    17:00 +29°C° 0 mm 4 mps 761 mmHg 61%
    18:00 +28°C° 0 mm 4 mps 761 mmHg 64%
    19:00 +27°C° 0 mm 4 mps 761 mmHg 68%
    20:00 +25°C° 0 mm 4 mps 760 mmHg 72%
    21:00 +22°C° 0 mm 4 mps 760 mmHg 76%
    22:00 +22°C° 0 mm 5 mps 760 mmHg 75%
    23:00 +21°C° 0 mm 5 mps 759 mmHg 75%

    Day after tomorrow, 24 July, Wednesday

    Time Temperature Precipitation Wind Pressure Humidity
    00:00 +21°C° 0 mm 5 mps 759 mmHg 74%
    01:00 +20°C° 0.3 mm 5 mps 758 mmHg 78%
    02:00 +20°C° 0.3 mm 4 mps 758 mmHg 81%
    03:00 +19°C° 0.3 mm 3 mps 757 mmHg 85%
    04:00 +20°C° 0.5 mm 3 mps 757 mmHg 84%
    05:00 +21°C° 0.5 mm 4 mps 757 mmHg 84%
    06:00 +21°C° 0.5 mm 4 mps 756 mmHg 83%
    07:00 +23°C° 0.1 mm 4 mps 756 mmHg 79%
    08:00 +25°C° 0.1 mm 4 mps 756 mmHg 74%
    09:00 +26°C° 0.1 mm 4 mps 756 mmHg 70%
    10:00 +27°C° 0 mm 4 mps 756 mmHg 66%
    11:00 +29°C° 0 mm 3 mps 757 mmHg 62%
    12:00 +30°C° 0 mm 3 mps 757 mmHg 57%
    13:00 +30°C° 0 mm 3 mps 757 mmHg 53%
    14:00 +31°C° 0 mm 3 mps 757 mmHg 49%
    15:00 +33°C° 0 mm 3 mps 757 mmHg 46%
    16:00 +31°C° 0 mm 3 mps 757 mmHg 50%
    17:00 +30°C° 0 mm 3 mps 757 mmHg 54%
    18:00 +29°C° 0 mm 3 mps 757 mmHg 59%
    19:00 +27°C° 0 mm 2 mps 757 mmHg 63%
    20:00 +25°C° 0 mm 2 mps 758 mmHg 68%
    21:00 +24°C° 0 mm 1 mps 758 mmHg 73%
    22:00 +23°C° 0 mm 1 mps 758 mmHg 74%
    23:00 +23°C° 0 mm 1 mps 758 mmHg 76%

    25 July, Thursday

    Time Temperature Precipitation Wind Pressure Humidity
    00:00 +23°C° 0 mm 1 mps 758 mmHg 77%
    01:00 +23°C° 0 mm 1 mps 757 mmHg 78%
    02:00 +21°C° 0 mm 2 mps 757 mmHg 79%
    03:00 +21°C° 0 mm 2 mps 757 mmHg 80%
    04:00 +23°C° 0 mm 2 mps 756 mmHg 80%
    05:00 +22°C° 0 mm 3 mps 756 mmHg 80%
    06:00 +24°C° 0 mm 3 mps 756 mmHg 80%
    07:00 +25°C° 0.2 mm 3 mps 756 mmHg 77%
    08:00 +26°C° 0.2 mm 4 mps 756 mmHg 74%
    09:00 +27°C° 0.2 mm 4 mps 756 mmHg 72%
    10:00 +28°C° 0 mm 4 mps 755 mmHg 68%
    11:00 +28°C° 0 mm 3 mps 755 mmHg 65%
    12:00 +29°C° 0 mm 3 mps 755 mmHg 62%
    13:00 +29°C° 0 mm 3 mps 754 mmHg 64%
    14:00 +29°C° 0 mm 4 mps 754 mmHg 66%
    15:00 +29°C° 0 mm 5 mps 754 mmHg 68%
    16:00 +29°C° 0 mm 5 mps 753 mmHg 68%
    17:00 +29°C° 0 mm 5 mps 753 mmHg 68%
    18:00 +29°C° 0 mm 5 mps 753 mmHg 68%
    19:00 +28°C° 0.1 mm 4 mps 753 mmHg 71%
    20:00 +27°C° 0.1 mm 4 mps 753 mmHg 74%
    21:00 +26°C° 0.1 mm 4 mps 753 mmHg 76%
    22:00 +25°C° 0.2 mm 3 mps 753 mmHg 79%
    23:00 +25°C° 0.2 mm 3 mps 753 mmHg 81%

    26 July, Friday

    Time Temperature Precipitation Wind Pressure Humidity
    00:00 +24°C° 0.2 mm 3 mps 753 mmHg 83%
    01:00 +22°C° 0 mm 3 mps 753 mmHg 83%
    02:00 +21°C° 0 mm 3 mps 753 mmHg 83%
    03:00 +21°C° 0 mm 3 mps 752 mmHg 83%
    04:00 +21°C° 0 mm 4 mps 753 mmHg 81%
    05:00 +21°C° 0 mm 4 mps 753 mmHg 80%
    06:00 +21°C° 0 mm 4 mps 753 mmHg 78%
    07:00 +21°C° 0 mm 5 mps 753 mmHg 75%
    08:00 +21°C° 0 mm 5 mps 753 mmHg 72%
    09:00 +22°C° 0 mm 5 mps 753 mmHg 69%
    10:00 +22°C° 0.1 mm 5 mps 753 mmHg 69%
    11:00 +22°C° 0.1 mm 5 mps 753 mmHg 70%
    12:00 +22°C° 0.1 mm 5 mps 753 mmHg 70%
    13:00 +23°C° 0 mm 5 mps 753 mmHg 66%
    14:00 +24°C° 0 mm 6 mps 753 mmHg 62%
    15:00 +26°C° 0 mm 6 mps 752 mmHg 59%
    16:00 +24°C° 0.3 mm 6 mps 752 mmHg 63%
    17:00 +23°C° 0.3 mm 6 mps 752 mmHg 68%
    18:00 +22°C° 0.3 mm 5 mps 752 mmHg 72%
    19:00 +21°C° 0 mm 5 mps 752 mmHg 76%
    20:00 +20°C° 0 mm 5 mps 752 mmHg 79%
    21:00 +19°C° 0 mm 5 mps 752 mmHg 83%
    22:00 +19°C° 0 mm 4 mps 752 mmHg 85%
    23:00 +18°C° 0 mm 4 mps 752 mmHg 88%

    27 July, Saturday

    Time Temperature Precipitation Wind Pressure Humidity
    00:00 +18°C° 0 mm 4 mps 752 mmHg 91%
    01:00 +17°C° 0 mm 4 mps 751 mmHg 91%
    02:00 +17°C° 0 mm 4 mps 751 mmHg 90%
    03:00 +17°C° 0 mm 4 mps 751 mmHg 90%
    04:00 +16°C° 0 mm 5 mps 751 mmHg 87%
    05:00 +16°C° 0 mm 5 mps 752 mmHg 84%
    06:00 +17°C° 0 mm 5 mps 752 mmHg 81%
    07:00 +17°C° 0 mm 6 mps 752 mmHg 79%
    08:00 +17°C° 0 mm 6 mps 753 mmHg 77%
    09:00 +17°C° 0 mm 7 mps 753 mmHg 75%
    10:00 +17°C° 0 mm 7 mps 753 mmHg 76%
    11:00 +16°C° 0 mm 7 mps 754 mmHg 77%
    12:00 +16°C° 0 mm 7 mps 754 mmHg 78%
    13:00 +15°C° 0.1 mm 7 mps 755 mmHg 78%
    14:00 +15°C° 0.1 mm 7 mps 755 mmHg 78%
    15:00 +15°C° 0.1 mm 7 mps 755 mmHg 78%
    16:00 +15°C° 0 mm 7 mps 755 mmHg 75%
    17:00 +15°C° 0 mm 6 mps 756 mmHg 71%
    18:00 +16°C° 0 mm 6 mps 756 mmHg 68%
    19:00 +15°C° 0 mm 6 mps 756 mmHg 69%
    20:00 +15°C° 0 mm 6 mps 756 mmHg 70%
    21:00 +14°C° 0 mm 5 mps 757 mmHg 71%
    22:00 +14°C° 0 mm 5 mps 757 mmHg 72%
    23:00 +14°C° 0 mm 5 mps 757 mmHg 73%
    Show more